Погода в Карповке

Россия / Омская область     54°30′31″N   73°44′11″E
темп.,
°C
ветер,
м/с
пор.,
м/с
влажн.,
%
обл.,
%
осадки,
мм/ч
давл.,
гПа
погр.,
м
25 февраля, чт
чт2500:00−28ююз469049 0.0 101184
03:00−29ююз479639 0.0 1011105
06:00−29юз349932 0.0 101234
09:00−27юз349991 0.0 101252
12:00−24зюз359592 0.0 1014291
15:00−24зюз359367 0.0 1016291
18:00−24зюз479576 0.0 1019257
21:00−24зсз489698 0.0 1022187
26 февраля, пт
пт2600:00−29з479756 0.0 1024111
03:00−28з499784 0.0 1026191
06:00−28зюз489790 0.1 1029158
09:00−28зюз489792 0.0 1031166
12:00−25з479597 0.1 1032362
15:00−24зюз4693100 0.0 1033383
18:00−27юз469592 0.0 103389
21:00−30зюз349753 0.0 103436
27 февраля, сб
сб2700:00−31юз339736 0.0 103420
03:00−31юз239842 0.0 103419
06:00−31юз239944 0.0 103419
09:00−31ююз239725 0.0 103419
12:00−26ю349413 0.0 1035199
15:00−25ю35920 0.0 1034259
18:00−27юв34950 0.0 103359
21:00−29юв479533 0.0 103392
28 февраля, вс
вс2800:00−29юв479627 0.0 1032100
03:00−27юв5109736 0.0 1029145
06:00−23юв6119468 0.0 1027235
09:00−20юв71394100 0.0 1024294
12:00−16юв81395100 0.3 1022420
15:00−11юв81393100 0.8 1018552
18:00−10юв81493100 1.4 1015547
21:00−6юв71295100 0.9 1011457
1 марта, пн
пн100:00−2юв5997100 2.4 1008330
03:00+1зюз61299100 1.6 1007520
06:00+1зюз71298100 1.8 1007580
09:000з6119597 0.2 1009680
12:00−6з599396 0.3 1011367
15:00−6з359381 0.0 1013333
18:00−10з229575 0.0 101421
21:00−12сз019693 0.0 101421